User: anonymous   Login
Location: Bauerbach
(50.4985°N, 10.3912°E)
Time: 04:38:52
(UTC+00:00)
Language:

Cosmos 1862 Rocket - Orbit

View from above orbital plane
View from above orbital plane
View from above satellite
View from above satellite

Ground track
Ground track

The orbit is defined by the following mean orbital elements,

1 18153U          26069.82293154 +.00000000 +00000-0 +72230-4 0 00006
2 18153  82.5030 347.9636 0021067  14.1244 346.0556 14.85631015    01
Epoch (UTC): 10 March 2026 19:45:01
Eccentricity: 0.0021067
inclination: 82.5030°
perigee height: 597 km
apogee height: 626 km
right ascension of ascending node: 347.9636°
argument of perigee: 14.1244°
revolutions per day: 14.85631015
mean anomaly at epoch: 346.0556°

The dashed part of the orbit path shows where the satellite is in the earth's shadow,  

DLR